Zurück zum Katalog

STARLINK-6059

AktivKommunikationVLEO
NORAD 56814·PAYLOAD·🇺🇸 United States

Gestartet May 31, 2023 von Vandenberg Space Force Base

Loading…

Nächste Überflüge (nächste 24 Stunden)

TLE

AktuellSource: CelesTrak SupGP

Epoche: Sep 14, 2026, 22:24 UTC

1 56814C 23078AZ  26257.93381944 -.00001879  00000+0 -15740-3 0  2570
2 56814  70.0011 227.1741 0003357 267.2684 332.6760 14.98340959    12

Verfolge STARLINK-6059 in Echtzeit mit AllMySat

Download on the App Store